GW4987 Weather Reports


time (UTC)temp
F
wind
direction
speed
knots
gust
knots
rain 1hr
in
rain 24hr
in
rain mn
in
humidity
%
barometer
mb
20260903022004 73 200 7.0 7.8 0.00 0.00 0.00 37 1020.8
20260903021504 73 211 9.6 9.6 0.00 0.00 0.00 36 1020.8
20260903021004 74 200 9.6 12.2 0.00 0.00 0.00 36 1020.7
20260903020504 74 200 9.6 12.2 0.00 0.00 0.00 36 1020.8
20260903020004 74 200 9.6 12.2 0.00 0.00 0.00 36 1021.0
20260903015504 74 200 9.6 12.2 0.00 0.00 0.00 36 1020.8
20260903015004 74 226 7.0 16.5 0.00 0.00 0.00 36 1020.7
20260903014503 75 203 11.3 13.0 0.00 0.00 0.00 35 1020.7
20260903014003 75 203 11.3 13.0 0.00 0.00 0.00 35 1020.7
20260903013503 75 203 11.3 13.0 0.00 0.00 0.00 35 1020.8
20260903013003 76 204 11.3 14.8 0.00 0.00 0.00 34 1020.7
20260903012503 76 247 12.2 13.0 0.00 0.00 0.00 33 1020.6
20260903012003 76 247 12.2 13.0 0.00 0.00 0.00 33 1020.6
20260903011504 76 229 6.1 10.4 0.00 0.00 0.00 34 1020.9
20260903011004 77 211 7.8 8.7 0.00 0.00 0.00 34 1020.8
20260903010503 77 204 9.6 14.8 0.00 0.00 0.00 33 1020.9
20260903010004 77 217 11.3 16.5 0.00 0.00 0.00 34 1020.7
20260903005504 78 169 8.7 17.4 0.00 0.00 0.00 34 1020.8
20260903005003 77 176 7.0 13.0 0.00 0.00 0.00 34 1020.8
20260903004504 78 191 4.3 7.0 0.00 0.00 0.00 33 1020.6
20260903004004 78 204 7.0 18.2 0.00 0.00 0.00 33 1020.8
20260903003504 78 175 5.2 9.6 0.00 0.00 0.00 33 1020.8
20260903003003 78 207 14.8 20.0 0.00 0.00 0.00 34 1020.7
20260903002503 77 214 12.2 12.2 0.00 0.00 0.00 34 1020.7
20260903002003 78 210 7.8 13.0 0.00 0.00 0.00 34 1020.8
20260903001503 78 159 11.3 22.6 0.00 0.00 0.00 33 1021.0
20260903001004 79 217 6.1 8.7 0.00 0.00 0.00 34 1020.8
20260903000504 78 213 11.3 21.7 0.00 0.00 0.00 35 1020.7
20260903000005 78 221 6.1 19.1 0.00 0.00 0.00 35 1020.9
20260902235503 78 208 14.8 14.8 0.00 0.00 0.00 35 1020.7
20260902235003 78 218 10.4 16.5 0.00 0.00 0.00 35 1020.8
20260902234504 79 226 9.6 13.9 0.00 0.00 0.00 35 1021.1
20260902232504 78 232 5.2 9.6 0.00 0.00 0.00 37 1020.8
20260902232004 78 232 5.2 9.6 0.00 0.00 0.00 37 1021.1
20260902230003 80 191 2.6 10.4 0.00 0.00 0.00 37 1021.0
20260902225503 79 198 13.9 15.6 0.00 0.00 0.00 38 1021.0
20260902225004 79 219 7.0 18.2 0.00 0.00 0.00 38 1021.0
20260902224503 80 228 7.0 15.6 0.00 0.00 0.00 37 1021.5
20260902224003 79 211 11.3 15.6 0.00 0.00 0.00 38 1021.3
20260902223504 78 254 7.0 13.9 0.00 0.00 0.00 40 1021.3
20260902223004 78 189 7.0 12.2 0.00 0.00 0.00 40 1021.4
20260902222504 80 206 11.3 13.0 0.00 0.00 0.00 39 1021.4
20260902222004 79 277 9.6 19.1 0.00 0.00 0.00 40 1021.5
20260902221504 80 203 10.4 17.4 0.00 0.00 0.00 39 1021.4
20260902221004 81 183 6.1 11.3 0.00 0.00 0.00 38 1021.4
20260902220504 80 199 7.8 13.0 0.00 0.00 0.00 39 1021.5
20260902220003 79 212 23.5 23.5 0.00 0.00 0.00 39 1021.6
20260902215503 79 210 4.3 12.2 0.00 0.00 0.00 40 1021.6
20260902215004 78 225 12.2 24.3 0.00 0.00 0.00 39 1021.8
20260902214504 78 225 13.0 25.2 0.00 0.00 0.00 38 1021.7
20260902214004 79 211 15.6 18.2 0.00 0.00 0.00 39 1021.8
20260902213504 79 221 9.6 14.8 0.00 0.00 0.00 38 1021.8
20260902213004 79 215 13.9 17.4 0.00 0.00 0.00 39 1021.7
20260902212504 81 204 15.6 16.5 0.00 0.00 0.00 39 1022.0
20260902212005 80 209 9.6 13.0 0.00 0.00 0.00 39 1021.8
20260902211504 80 209 9.6 13.0 0.00 0.00 0.00 39 1022.2
20260902211004 78 217 13.0 13.9 0.00 0.00 0.00 40 1021.9
20260902210504 78 217 13.0 13.9 0.00 0.00 0.00 40 1022.3
20260902210004 78 217 13.0 13.9 0.00 0.00 0.00 40 1022.3
20260902205504 78 217 13.0 13.9 0.00 0.00 0.00 40 1022.2
20260902205004 78 217 13.0 13.9 0.00 0.00 0.00 40 1022.0
20260902204504 78 217 13.0 13.9 0.00 0.00 0.00 40 1022.3
20260902204004 78 217 13.0 13.9 0.00 0.00 0.00 40 1022.2
20260902203504 78 217 13.0 13.9 0.00 0.00 0.00 40 1022.2
20260902203003 78 217 13.0 13.9 0.00 0.00 0.00 40 1022.2
20260902202504 78 199 8.7 24.3 0.00 0.00 0.00 44 1022.4
20260902202004 76 232 9.6 19.1 0.00 0.00 0.00 46 1022.3
20260902201506 77 226 7.8 16.5 0.00 0.00 0.00 46 1022.3
20260902201004 78 212 14.8 17.4 0.00 0.00 0.00 45 1022.4
20260902192503 76 165 6.1 16.5 0.00 0.00 0.00 47 1022.7
20260902192004 76 212 13.9 21.7 0.00 0.00 0.00 46 1022.6
20260902191503 78 207 12.2 16.5 0.00 0.00 0.00 45 1022.6
20260902191004 78 231 15.6 16.5 0.00 0.00 0.00 44 1022.7
20260902190504 78 168 13.0 19.1 0.00 0.00 0.00 45 1022.8
20260902190005 77 210 13.9 19.1 0.00 0.00 0.00 44 1022.8
20260902185504 78 215 16.5 17.4 0.00 0.00 0.00 44 1022.9
20260902185003 78 185 8.7 17.4 0.00 0.00 0.00 44 1022.7
20260902184505 76 189 7.0 28.7 0.00 0.00 0.00 46 1023.0
20260902183004 77 199 13.0 16.5 0.00 0.00 0.00 48 1022.8
20260902182504 75 211 11.3 18.2 0.00 0.00 0.00 49 1022.9
20260902182004 75 211 11.3 18.2 0.00 0.00 0.00 49 1022.9
20260902181504 75 211 11.3 18.2 0.00 0.00 0.00 49 1023.0
20260902181004 76 252 6.1 12.2 0.00 0.00 0.00 48 1023.0
20260902180504 76 252 6.1 12.2 0.00 0.00 0.00 48 1023.0
20260902174503 75 213 19.1 20.9 0.00 0.00 0.00 49 1023.1
20260902174003 76 207 13.9 15.6 0.00 0.00 0.00 48 1023.4
20260902173504 74 182 10.4 12.2 0.00 0.00 0.00 50 1023.4
20260902173003 74 182 10.4 12.2 0.00 0.00 0.00 50 1023.5
20260902172503 76 225 9.6 16.5 0.00 0.00 0.00 48 1023.2
20260902172004 74 215 7.0 16.5 0.00 0.00 0.00 49 1023.2
20260902171504 76 186 7.0 14.8 0.00 0.00 0.00 47 1023.6
20260902171004 76 191 6.1 10.4 0.00 0.00 0.00 47 1023.1
20260902170504 76 191 6.1 10.4 0.00 0.00 0.00 47 1023.2
20260902164504 75 175 11.3 13.9 0.00 0.00 0.00 48 1023.1
20260902164004 74 197 7.0 11.3 0.00 0.00 0.00 47 1023.2
20260902163504 74 169 9.6 11.3 0.00 0.00 0.00 47 1023.1
20260902163003 74 178 15.6 23.5 0.00 0.00 0.00 47 1023.0
20260902162504 74 141 7.0 13.9 0.00 0.00 0.00 46 1023.2
20260902162005 74 228 12.2 13.9 0.00 0.00 0.00 47 1022.8
20260902160005 73 189 13.0 13.9 0.00 0.00 0.00 49 1022.8
20260902155504 72 174 9.6 15.6 0.00 0.00 0.00 47 1022.9
20260902155004 72 196 9.6 9.6 0.00 0.00 0.00 50 1022.6
20260902154504 72 196 9.6 9.6 0.00 0.00 0.00 50 1022.8
20260902154004 72 173 3.5 5.2 0.00 0.00 0.00 50 1022.8
20260902153504 72 209 10.4 15.6 0.00 0.00 0.00 49 1022.8
20260902153004 72 209 10.4 15.6 0.00 0.00 0.00 49 1022.9
20260902152504 72 209 10.4 15.6 0.00 0.00 0.00 49 1022.8
20260902152004 72 222 7.0 9.6 0.00 0.00 0.00 52 1022.8
20260902151504 72 211 7.0 13.0 0.00 0.00 0.00 53 1022.6
20260902151004 71 171 12.2 14.8 0.00 0.00 0.00 52 1022.8
20260902150504 71 171 12.2 14.8 0.00 0.00 0.00 52 1022.9
20260902150003 71 171 12.2 14.8 0.00 0.00 0.00 52 1022.7
20260902145503 71 171 12.2 14.8 0.00 0.00 0.00 52 1022.8
20260902145004 70 168 7.8 7.8 0.00 0.00 0.00 56 1022.9
20260902144503 70 168 7.8 7.8 0.00 0.00 0.00 56 1022.9
20260902144004 70 168 7.8 7.8 0.00 0.00 0.00 56 1022.9
20260902134504 64 182 2.6 4.3 0.00 0.00 0.00 77 1022.5
20260902134004 64 182 2.6 4.3 0.00 0.00 0.00 77 1022.5
20260902133504 64 182 2.6 4.3 0.00 0.00 0.00 77 1022.6
20260902133003 64 182 2.6 4.3 0.00 0.00 0.00 77 1022.5
20260902132503 64 182 2.6 4.3 0.00 0.00 0.00 77 1022.3
20260902132004 64 182 2.6 4.3 0.00 0.00 0.00 77 1022.3
20260902131503 64 182 2.6 4.3 0.00 0.00 0.00 77 1022.4
20260902131003 64 182 2.6 4.3 0.00 0.00 0.00 77 1022.3
20260902130504 64 182 2.6 4.3 0.00 0.00 0.00 77 1022.3
20260902083504 69 199 7.0 9.6 0.00 0.00 0.00 64 1022.4
20260902081504 69 199 7.0 9.6 0.00 0.00 0.00 64 1022.4
20260902081003 69 199 7.0 9.6 0.00 0.00 0.00 64 1022.6
20260902075004 69 199 7.0 9.6 0.00 0.00 0.00 64 1022.4
20260902074504 69 199 7.0 9.6 0.00 0.00 0.00 64 1022.5
20260902074004 69 199 7.0 9.6 0.00 0.00 0.00 64 1022.5
20260902041504 70 180 3.5 3.5 0.00 0.00 0.00 60 1022.5
20260902041004 70 180 3.5 3.5 0.00 0.00 0.00 60 1022.3
20260902040504 70 180 3.5 3.5 0.00 0.00 0.00 60 1022.5
20260902040004 70 180 3.5 3.5 0.00 0.00 0.00 60 1022.5
20260902035504 70 180 3.5 3.5 0.00 0.00 0.00 60 1022.3
20260902035004 70 180 3.5 3.5 0.00 0.00 0.00 60 1022.4
20260902034503 70 180 3.5 3.5 0.00 0.00 0.00 60 1022.4
20260902034003 70 180 3.5 3.5 0.00 0.00 0.00 60 1022.3
20260902033504 70 180 3.5 3.5 0.00 0.00 0.00 60 1022.3
20260902033003 70 180 3.5 3.5 0.00 0.00 0.00 60 1022.3
20260902032503 70 180 3.5 3.5 0.00 0.00 0.00 60 1021.9
20260902032004 70 180 3.5 3.5 0.00 0.00 0.00 60 1021.9
20260902030004 72 213 9.6 10.4 0.00 0.00 0.00 54 1021.8
20260902025503 72 213 9.6 10.4 0.00 0.00 0.00 54 1022.0
20260902025003 72 213 9.6 10.4 0.00 0.00 0.00 54 1021.6
20260902024504 72 213 9.6 10.4 0.00 0.00 0.00 54 1021.6
20260902024003 72 213 9.6 10.4 0.00 0.00 0.00 54 1021.5
20260902023503 72 213 9.6 10.4 0.00 0.00 0.00 54 1021.7
20260902023004 72 213 9.6 10.4 0.00 0.00 0.00 54 1021.6
20260902022503 72 213 9.6 10.4 0.00 0.00 0.00 54 1021.6